Fort Covington, New York, United States (12937)
Lat: 44.99N, Lon: 74.5W
Wx Zone: NYZ027
Local Info
Past Weather Observations for Friday, August 22, 2014

NOTE: This archive is for the closest National Weather Service station to Fort Covington. Information may differ from the station used for current weather conditions.

Click here for Long-term Archive

Time Weather Temperature Dewpoint Humidity Pressure Winds Precip Visibility
23:53
Overcast
64°F / 18°C 63°F / 17°C 94% 30.09 in
(1019 mb)
NE 3.5 mph
(NE 6 kph)
0.00 in
(0.00 mm)
10SM
22:53
Overcast
64°F / 18°C 61°F / 16°C 88% 30.09 in
(1019 mb)
ENE 3.5 mph
(ENE 6 kph)
- 10SM
21:53
Overcast
64°F / 18°C 63°F / 17°C 94% 30.09 in
(1019 mb)
NE 4.6 mph
(NE 7 kph)
- 10SM
20:53
Overcast
66°F / 19°C 63°F / 17°C 88% 30.06 in
(1018 mb)
ENE 4.6 mph
(ENE 7 kph)
- 10SM
20:02
Overcast
66°F / 19°C 63°F / 17°C 88% 30.06 in
(1018 mb)
ENE 6.9 mph
(ENE 11 kph)
- 10SM
19:53
Overcast
66°F / 19°C 63°F / 17°C 88% 30.06 in
(1018 mb)
ENE 6.9 mph
(ENE 11 kph)
- 10SM
19:30
Overcast
66°F / 19°C 63°F / 17°C 88% 30.06 in
(1018 mb)
ENE 5.8 mph
(ENE 9 kph)
- 10SM
18:53
Overcast
66°F / 19°C 63°F / 17°C 88% 30.06 in
(1018 mb)
NE 9.2 mph
(NE 15 kph)
- 10SM
17:53
Mostly Cloudy
70°F / 21°C 63°F / 17°C 78% 30.04 in
(1017 mb)
NE 10.4 mph
(NE 17 kph)
- 10SM
16:53
Clear
72°F / 22°C 63°F / 17°C 73% 30.04 in
(1017 mb)
NE 17.3 mph
(NE 28 kph)
- 10SM
15:53
Clear
73°F / 23°C 64°F / 18°C 74% 30.04 in
(1017 mb)
NE 17.3 mph
(NE 28 kph)
- 10SM
14:53
Clear
75°F / 24°C 64°F / 18°C 69% 30.04 in
(1017 mb)
NE 12.7 mph
(NE 20 kph)
- 10SM
13:53
Mostly Cloudy
73°F / 23°C 64°F / 18°C 74% 30.04 in
(1017 mb)
NE 15 mph
(NE 24 kph)
- 10SM
13:17
Overcast
73°F / 23°C 64°F / 18°C 74% 30.04 in
(1017 mb)
NE 12.7 mph
(NE 20 kph)
- 10SM
12:53
Overcast
72°F / 22°C 64°F / 18°C 78% 30.04 in
(1017 mb)
NE 12.7 mph
(NE 20 kph)
- 10SM
11:53
Overcast
72°F / 22°C 64°F / 18°C 78% 30.06 in
(1018 mb)
ENE 9.2 mph
(ENE 15 kph)
- 10SM
11:40
Overcast
72°F / 22°C 66°F / 19°C 83% 30.04 in
(1017 mb)
ENE 9.2 mph
(ENE 15 kph)
- 10SM
11:27
Overcast
72°F / 22°C 64°F / 18°C 78% 30.04 in
(1017 mb)
NE 9.2 mph
(NE 15 kph)
- 10SM
10:53
Overcast
70°F / 21°C 64°F / 18°C 83% 30.06 in
(1018 mb)
ENE 8.1 mph
(ENE 13 kph)
- 10SM
09:53
Overcast
68°F / 20°C 64°F / 18°C 88% 30.06 in
(1018 mb)
ENE 8.1 mph
(ENE 13 kph)
- 10SM
09:45
Overcast
68°F / 20°C 64°F / 18°C 88% 30.06 in
(1018 mb)
NE 8.1 mph
(NE 13 kph)
- 10SM
09:26
Overcast
66°F / 19°C 64°F / 18°C 94% 30.06 in
(1018 mb)
NE 6.9 mph
(NE 11 kph)
- 10SM
08:53
Overcast
64°F / 18°C 63°F / 17°C 94% 30.06 in
(1018 mb)
NE 6.9 mph
(NE 11 kph)
- 10SM
08:13
Overcast
64°F / 18°C 63°F / 17°C 94% 30.04 in
(1017 mb)
NE 6.9 mph
(NE 11 kph)
- 10SM
07:53
Overcast
64°F / 18°C 63°F / 17°C 94% 30.04 in
(1017 mb)
NE 8.1 mph
(NE 13 kph)
- 10SM
07:37
Overcast
64°F / 18°C 63°F / 17°C 94% 30.04 in
(1017 mb)
NE 8.1 mph
(NE 13 kph)
- 10SM
07:27
Overcast
64°F / 18°C 63°F / 17°C 94% 30.04 in
(1017 mb)
NE 6.9 mph
(NE 11 kph)
- 10SM
07:13
Overcast
64°F / 18°C 63°F / 17°C 94% 30.04 in
(1017 mb)
ENE 8.1 mph
(ENE 13 kph)
- 10SM
06:53
Overcast
64°F / 18°C 63°F / 17°C 94% 30.04 in
(1017 mb)
NE 6.9 mph
(NE 11 kph)
- 10SM
06:40
Overcast
64°F / 18°C 63°F / 17°C 94% 30.04 in
(1017 mb)
NE 5.8 mph
(NE 9 kph)
- 10SM
06:13
Overcast
64°F / 18°C 63°F / 17°C 94% 30.04 in
(1017 mb)
ENE 6.9 mph
(ENE 11 kph)
- 10SM
06:02
Overcast
64°F / 18°C 63°F / 17°C 94% 30.04 in
(1017 mb)
ENE 5.8 mph
(ENE 9 kph)
- 10SM
05:53
Overcast
63°F / 17°C 63°F / 17°C 100% 30.04 in
(1017 mb)
ENE 5.8 mph
(ENE 9 kph)
- 10SM
04:53
Overcast
63°F / 17°C 63°F / 17°C 100% 30.01 in
(1016 mb)
NE 5.8 mph
(NE 9 kph)
- 10SM
04:23
Mostly Cloudy
63°F / 17°C 63°F / 17°C 100% 30.01 in
(1016 mb)
NE 3.5 mph
(NE 6 kph)
- 10SM
03:53
Partly Cloudy
63°F / 17°C 63°F / 17°C 100% 30.01 in
(1016 mb)
NE 3.5 mph
(NE 6 kph)
- 10SM
02:53
Partly Cloudy
63°F / 17°C 63°F / 17°C 100% 30.01 in
(1016 mb)
NE 4.6 mph
(NE 7 kph)
- 10SM
01:53
Overcast
63°F / 17°C 63°F / 17°C 100% 30.01 in
(1016 mb)
ENE 5.8 mph
(ENE 9 kph)
- 10SM
00:53
Partly Cloudy
63°F / 17°C 63°F / 17°C 100% 30.01 in
(1016 mb)
ENE 4.6 mph
(ENE 7 kph)
- 10SM
Time Weather Temperature Dewpoint Humidity Pressure Winds Precip Visibility


Weather for websites

WeatherForYou.com, LLC is not responsible for any damages or problems caused by this service. Current weather conditions are obtained from the closest station including government and personal stations which may have varying degrees of accuracy. Weather forecasts are derived from the NOAA NDFD. Like all things, this site belongs to Jesus Christ... He just trusts me to maintain it. If you have any questions or comments email webmaster@weatherforyou.com

Copyright © 2014, WeatherForYou.com LLC. All rights reserved.